Total_Precipitation_Accumulation
0.02 0.03 0.04 0.06 0.08 0.11 0.14 0.16 0.18 0.19 0.20 0.24 0.29 0.34 0.34 0.41 0.59 0.76 0.75 0.66 0.72 0.82 0.91 1.01 1.05 1.10 1.10 1.00 0.95 0.93 0.93 1.01 0.96 0.82 0.76 0.77 0.65 0.49 0.41 0.35 0.30 0.28 0.25
0.02 0.02 0.03 0.05 0.06 0.07 0.09 0.13 0.16 0.18 0.18 0.17 0.19 0.24 0.27 0.33 0.48 0.80 0.97 0.99 0.96 0.89 0.94 1.10 1.18 1.14 1.05 0.99 0.99 0.96 0.95 1.03 0.98 0.90 0.87 0.81 0.73 0.62 0.51 0.43 0.33 0.28 0.24
0.01 0.02 0.02 0.02 0.04 0.05 0.07 0.10 0.13 0.16 0.18 0.17 0.18 0.23 0.28 0.29 0.35 0.56 0.78 0.90 0.93 0.89 0.95 0.99 1.02 1.08 1.06 0.98 0.92 0.91 0.91 1.02 1.01 0.93 1.00 0.98 0.87 0.75 0.61 0.49 0.40 0.34 0.27
0.01 0.01 0.02 0.02 0.03 0.05 0.06 0.09 0.12 0.15 0.17 0.20 0.23 0.28 0.29 0.26 0.27 0.40 0.55 0.65 0.70 0.75 0.81 0.85 0.89 0.92 0.97 1.01 0.96 0.91 0.94 0.96 0.98 0.97 1.03 1.17 1.07 0.90 0.70 0.57 0.46 0.39 0.34
0.03 0.04 0.04 0.04 0.04 0.05 0.06 0.09 0.10 0.11 0.13 0.18 0.25 0.28 0.26 0.23 0.27 0.39 0.44 0.40 0.45 0.50 0.53 0.54 0.66 0.82 0.92 0.97 0.94 0.91 0.94 0.94 0.94 1.00 1.05 1.19 1.22 1.04 0.79 0.59 0.48 0.43 0.38
0.08 0.10 0.08 0.09 0.09 0.09 0.10 0.11 0.11 0.14 0.17 0.20 0.22 0.25 0.24 0.20 0.25 0.30 0.28 0.26 0.29 0.34 0.36 0.34 0.35 0.48 0.67 0.80 0.83 0.83 0.88 0.92 0.95 0.96 1.04 1.13 1.19 1.09 0.89 0.73 0.57 0.44 0.41
0.07 0.12 0.13 0.13 0.13 0.10 0.10 0.12 0.14 0.18 0.22 0.25 0.26 0.28 0.28 0.28 0.22 0.19 0.16 0.18 0.22 0.29 0.32 0.30 0.24 0.23 0.36 0.49 0.60 0.67 0.70 0.71 0.79 0.93 1.04 1.06 1.16 1.18 1.07 0.88 0.73 0.58 0.43
0.05 0.12 0.17 0.18 0.17 0.15 0.17 0.20 0.22 0.26 0.28 0.31 0.32 0.35 0.39 0.37 0.27 0.18 0.14 0.14 0.19 0.27 0.30 0.28 0.25 0.25 0.27 0.32 0.42 0.51 0.57 0.57 0.57 0.67 0.84 1.03 1.18 1.30 1.24 1.13 1.00 0.84 0.66
0.08 0.13 0.18 0.25 0.26 0.25 0.27 0.31 0.35 0.37 0.36 0.36 0.38 0.41 0.47 0.50 0.39 0.24 0.18 0.18 0.24 0.27 0.30 0.28 0.27 0.23 0.21 0.22 0.30 0.37 0.42 0.51 0.54 0.58 0.70 0.93 1.11 1.26 1.39 1.31 1.15 0.93 0.75
0.13 0.17 0.23 0.31 0.36 0.35 0.37 0.41 0.43 0.46 0.44 0.42 0.40 0.43 0.49 0.58 0.49 0.30 0.23 0.25 0.33 0.35 0.39 0.37 0.29 0.25 0.20 0.17 0.23 0.31 0.34 0.37 0.44 0.50 0.58 0.74 0.92 1.04 1.18 1.17 1.01 0.87 0.69
0.22 0.25 0.30 0.36 0.42 0.42 0.44 0.47 0.49 0.50 0.51 0.51 0.49 0.48 0.52 0.59 0.54 0.35 0.28 0.33 0.43 0.48 0.45 0.43 0.38 0.27 0.21 0.17 0.18 0.26 0.28 0.34 0.41 0.46 0.55 0.70 0.87 1.03 1.04 1.03 0.98 0.80 0.65
0.32 0.33 0.36 0.42 0.44 0.43 0.54 0.60 0.65 0.66 0.63 0.60 0.64 0.61 0.58 0.59 0.55 0.42 0.30 0.30 0.43 0.59 0.61 0.56 0.51 0.38 0.25 0.22 0.19 0.20 0.22 0.27 0.42 0.46 0.51 0.62 0.75 0.91 1.00 1.03 1.00 0.86 0.68
0.31 0.33 0.38 0.47 0.53 0.57 0.64 0.68 0.76 0.80 0.78 0.73 0.73 0.77 0.72 0.68 0.65 0.48 0.37 0.30 0.38 0.56 0.71 0.70 0.59 0.46 0.36 0.29 0.27 0.25 0.23 0.24 0.35 0.44 0.44 0.48 0.55 0.68 0.93 1.13 1.20 1.10 0.86
0.36 0.37 0.40 0.47 0.54 0.66 0.76 0.77 0.78 0.82 0.84 0.83 0.80 0.77 0.77 0.77 0.80 0.67 0.51 0.38 0.41 0.56 0.69 0.72 0.64 0.59 0.52 0.43 0.38 0.35 0.30 0.27 0.31 0.39 0.44 0.49 0.59 0.70 0.87 1.06 1.21 1.18 1.01
0.39 0.38 0.42 0.48 0.55 0.68 0.82 0.84 0.75 0.76 0.79 0.75 0.71 0.68 0.70 0.71 0.76 0.71 0.62 0.59 0.61 0.70 0.81 0.92 0.87 0.78 0.71 0.63 0.55 0.49 0.44 0.38 0.35 0.41 0.52 0.57 0.65 0.68 0.77 0.88 1.04 1.09 0.94
0.43 0.40 0.43 0.48 0.56 0.66 0.79 0.85 0.70 0.56 0.54 0.55 0.49 0.44 0.43 0.47 0.57 0.60 0.55 0.53 0.57 0.68 0.84 1.01 0.96 0.86 0.80 0.75 0.69 0.62 0.56 0.50 0.45 0.44 0.50 0.58 0.62 0.65 0.71 0.79 0.86 0.93 0.89
0.51 0.46 0.48 0.50 0.55 0.61 0.71 0.82 0.85 0.68 0.49 0.43 0.35 0.27 0.26 0.29 0.42 0.51 0.57 0.56 0.56 0.60 0.73 0.88 0.87 0.82 0.79 0.80 0.75 0.67 0.59 0.57 0.58 0.55 0.52 0.57 0.62 0.64 0.65 0.73 0.76 0.82 0.85
0.70 0.59 0.50 0.50 0.56 0.62 0.68 0.76 0.85 0.89 0.79 0.61 0.39 0.23 0.21 0.25 0.34 0.48 0.60 0.60 0.62 0.60 0.64 0.75 0.77 0.75 0.74 0.76 0.73 0.70 0.65 0.66 0.66 0.62 0.59 0.59 0.64 0.64 0.61 0.63 0.68 0.68 0.73
0.63 0.66 0.58 0.52 0.57 0.64 0.68 0.73 0.81 0.87 0.92 0.88 0.63 0.35 0.23 0.27 0.37 0.52 0.62 0.61 0.68 0.65 0.63 0.66 0.69 0.68 0.68 0.72 0.72 0.72 0.70 0.70 0.68 0.66 0.65 0.63 0.64 0.66 0.60 0.57 0.62 0.66 0.64
0.48 0.46 0.46 0.53 0.59 0.65 0.71 0.74 0.78 0.85 0.89 0.89 0.75 0.50 0.28 0.27 0.35 0.50 0.60 0.66 0.69 0.67 0.63 0.60 0.64 0.66 0.68 0.67 0.69 0.70 0.71 0.71 0.68 0.64 0.66 0.66 0.63 0.63 0.59 0.56 0.56 0.59 0.56
0.48 0.42 0.32 0.43 0.57 0.63 0.69 0.74 0.75 0.79 0.83 0.82 0.71 0.44 0.25 0.26 0.37 0.49 0.59 0.64 0.62 0.62 0.59 0.58 0.58 0.57 0.58 0.59 0.60 0.61 0.65 0.65 0.62 0.59 0.61 0.64 0.62 0.60 0.57 0.56 0.54 0.52 0.53
0.51 0.50 0.36 0.39 0.52 0.58 0.61 0.73 0.75 0.74 0.74 0.73 0.61 0.38 0.26 0.31 0.43 0.52 0.63 0.62 0.57 0.56 0.53 0.53 0.53 0.50 0.46 0.48 0.52 0.55 0.60 0.62 0.59 0.57 0.58 0.59 0.59 0.58 0.54 0.53 0.54 0.53 0.53
0.43 0.49 0.40 0.37 0.47 0.45 0.52 0.68 0.70 0.67 0.66 0.65 0.51 0.38 0.34 0.43 0.51 0.57 0.63 0.61 0.56 0.52 0.50 0.49 0.47 0.44 0.40 0.40 0.41 0.43 0.51 0.55 0.51 0.49 0.50 0.52 0.55 0.54 0.50 0.47 0.47 0.46 0.45
0.37 0.46 0.38 0.30 0.34 0.43 0.52 0.60 0.63 0.58 0.56 0.55 0.45 0.34 0.33 0.42 0.47 0.49 0.55 0.53 0.48 0.48 0.47 0.43 0.38 0.34 0.33 0.36 0.38 0.36 0.38 0.42 0.42 0.44 0.46 0.44 0.47 0.48 0.46 0.44 0.45 0.44 0.41
0.38 0.44 0.35 0.25 0.26 0.33 0.44 0.53 0.55 0.50 0.47 0.45 0.38 0.33 0.32 0.35 0.37 0.39 0.41 0.40 0.39 0.39 0.37 0.35 0.36 0.35 0.33 0.29 0.29 0.29 0.30 0.30 0.31 0.34 0.42 0.45 0.42 0.42 0.42 0.43 0.44 0.46 0.45
0.33 0.38 0.33 0.22 0.18 0.24 0.34 0.42 0.42 0.41 0.41 0.37 0.34 0.30 0.29 0.30 0.29 0.29 0.30 0.28 0.29 0.31 0.31 0.32 0.32 0.29 0.27 0.25 0.24 0.23 0.23 0.23 0.24 0.27 0.33 0.39 0.41 0.42 0.43 0.44 0.42 0.45 0.46